EHI
0 0 0 0 0 0 0 0 0 0 0 0 0 0 0 0 0 0 0 0 0 0 0 0 0 0 0 0 0 0 0 0 0 0 0 0 0 0 0 0 0 0 0
0 0 0 0 0 0 0 0 0 0 0 0 0 0 0 0 0 0 0 0 0 0 0 0 0 0 0 0 0 0 0 0 0 0 0 0 0 0 0 0 0 0 0
0 0 0 0 0 0 0 0 0 0 0 0 0 0 0 0 0 0 0 0 0 0 0 0 0 0 0 0 0 0 0 0 0 0 0 0 0 0 0 0 0 0 0
0 0 0 0 0 0 0 0 0 0 0 0 0 0 0 0 0 0 0 0 0 0 0 0 0 0 0 0 0 0 0 0 0 0 0 0 0 0 0 0 0 0 0
0 0 0 0 0 0 0 0 0 0 0 0 0 0 0 0 0 0 0 0 0 0 0 0 0 0 0 0 0 0 0 0 0 0 0 0 0 0 0 0 0 0 0
0 0 0 0 0 0 0 0 0 0 0 0 0 0 0 0 0 0 0 0 0 0 0 0 0 0 0 0 0 0 0 0 0 0 0 0 0 0 0 0 0 0 0
0 0 0 0 0 0 0 0 0 0 0 0 0 0 0 0 0 0 0 0 0 0 0 0 0 0 0 0 0 0 0 0 0 0 0 0 0 0 0 0 0 0 0
0 0 0 0 0 0 0 0 0 0 0 0 0 0 0 0 0 0 0 0 0 0 0 0 0 0 0 0 0 0 0 0 0 0 0 0 0 0 0 0 0 0 0
0 0 0 0 0 0 0 0 0 0 0 0 0 0 0 0 0 0 0 0 0 0 0 0 0 0 0 0 0 0 0 0 0 0 0 0 0 0 0 0 0 0 0
0 0 0 0 0 0 0 0 0 0 0 0 0 0 0 0 0 0 0 0 0 0 0 0 0 0 0 0 0 0 0 0 0 0 0 0 0 0 0 0 0 0 0
0 0 0 0 0 0 0 0 0 0 0 0 0 0 0 0 0 0 0 0 0 0 0 0 0 0 0 0 0 0 0 0 0 0 0 0 0 0 0 0 0 0 0
0 0 0 0 0 0 0 0 0 0 0 0 0 0 0 0 0 0 0 0 0 0 0 0 0 0 0 0 0 0 0 0 0 0 0 0 0 0 0 0 0 0 0
0 0 0 0 0 0 0 0 0 0 0 0 0 0 0 0 0 0 0 0 0 0 0 0 0 0 0 0 0 0 0 0 0 0 0 0 0 0 0 0 0 0 0
0 0 0 0 0 0 0 0 0 0 0 0 0 0 0 0 0 0 0 0 0 0 0 0 0 0 0 0 0 0 0 0 0 0 0 0 0 0 0 0 0 0 0
0 0 0 0 0 0 0 0 0 0 0 0 0 0 0 0 0 0 0 0 0 0 0 0 0 0 0 0 0 0 0 0 0 0 0 0 0 0 0 0 0 0 0
0 0 0 0 0 0 0 0 0 0 0 0 0 0 0 0 0 0 0 0 0 0 0 0 0 0 0 0 0 0 0 0 0 0 0 0 0 0 0 0 0 0 0
0 0 0 0 0 0 0 0 0 0 0 0 0 0 0 0 0 0 0 0 0 0 0 0 0 0 0 0 0 0 0 0 0 0 0 0 0 0 0 0 0 0 0
0 0 0 0 0 0 0 0 0 0 0 0 0 0 0 0 0 0 0 0 0 0 0 0 0 0 0 0 0 0 0 0 0 0 0 0 0 0 0 0 0 0 0
0 0 0 0 0 0 0 0 0 0 0 0 0 0 0 0 0 0 0 0 0 0 0 0 0 0 0 0 0 0 0 0 0 0 0 0 0 0 0 0 0 0 0
0 0 0 0 0 0 0 0 0 0 0 0 0 0 0 0 0 0 0 0 0 0 0 0 0 0 0 0 0 0 0 0 0 0 0 0 0 0 0 0 0 0 0
0 0 0 0 0 0 0 0 0 0 0 0 0 0 0 0 0 0 0 0 0 0 0 0 0 0 0 0 0 0 0 0 0 0 0 0 0 0 0 0 0 0 0
0 0 0 0 0 0 0 0 0 0 0 0 0 0 0 0 0 0 0 0 0 0 0 0 0 0 0 0 0 0 0 0 0 0 0 0 0 0 0 0 0 0 0
0 0 0 0 0 0 0 0 0 0 0 0 0 0 0 0 0 0 0 0 0 0 0 0 0 0 0 0 0 0 0 0 0 0 0 0 0 0 0 0 0 0 0
0 0 0 0 0 0 0 0 0 0 0 0 0 0 0 0 0 0 0 0 0 0 0 0 0 0 0 0 0 0 0 0 0 0 0 0 0 0 0 0 0 0 0
0 0 0 0 0 0 0 0 0 0 0 0 0 0 0 0 0 0 0 0 0 0 0 0 0 0 0 0 0 0 0 0 0 0 0 0 0 0 0 0 0 0 0
0 0 0 0 0 0 0 0 0 0 0 0 0 0 0 0 0 0 0 0 0 0 0 0 0 0 0 0 0 0 0 0 0 0 0 0 0 0 0 0 0 0 0
Wind_Speed
12 12 13 13 12 12 12 11 10 10 10 10 9 9 9 9 8 7 7 6 7 6 6 6 6 5 5 4 4 4 4 3 2 1 1 1 2 2 2 2 3 3 4
11 12 13 12 12 12 11 10 9 10 9 9 9 9 9 8 7 7 6 6 6 6 5 5 5 4 5 4 4 4 3 2 2 1 2 2 2 2 2 3 3 3 4
10 11 11 11 10 10 9 8 8 8 8 8 8 9 8 7 7 6 6 5 5 4 4 3 3 3 4 3 3 3 2 3 1 1 2 2 2 2 2 3 3 3 5
10 10 10 9 8 8 7 7 7 7 7 7 7 7 7 7 7 6 6 6 5 5 4 3 2 2 2 3 3 3 3 3 2 2 2 2 2 3 2 2 3 3 4
8 9 8 7 7 7 6 6 6 6 6 5 6 6 5 5 6 6 5 5 5 5 5 4 2 2 2 2 2 2 2 2 2 2 2 2 3 2 2 2 3 4 4
8 7 6 6 6 5 5 4 5 4 4 5 5 5 5 5 8 10 6 4 4 4 4 4 3 4 6 6 7 6 3 2 2 1 2 2 4 3 2 2 2 2 4
6 6 5 5 4 4 4 4 3 3 3 3 3 4 4 5 9 10 10 5 4 4 3 3 2 3 4 4 7 8 8 7 4 3 3 4 4 4 3 3 3 3 4
5 4 4 4 4 3 3 3 2 1 1 1 1 2 2 4 8 10 9 6 5 5 4 2 1 2 3 4 4 5 5 5 5 2 4 6 7 6 5 4 3 4 5
5 4 3 4 4 3 2 1 0 1 1 1 1 2 2 3 6 8 8 5 5 6 5 3 2 1 4 5 4 5 6 6 6 7 8 8 11 11 6 2 2 1 3
4 4 3 3 3 2 1 0 0 1 1 1 1 1 2 1 5 7 7 3 4 4 5 4 4 4 6 6 3 3 6 6 7 9 9 9 6 6 5 5 4 2 2
4 4 3 2 2 2 1 1 1 2 2 2 2 1 1 2 5 8 8 3 2 3 4 4 5 10 11 10 5 4 7 7 6 6 6 6 5 4 4 3 4 4 3
4 3 2 1 1 2 3 3 4 4 4 3 3 2 2 3 5 7 10 8 5 2 3 4 6 12 12 9 5 5 8 6 3 4 4 4 4 4 4 4 3 4 5
3 2 2 1 2 2 3 4 4 4 3 3 2 2 2 2 4 8 8 9 9 4 4 9 10 10 8 5 7 8 5 2 2 3 4 4 4 4 4 4 4 2 2
3 2 1 2 2 3 3 3 3 3 3 3 3 2 1 2 3 4 5 5 7 6 6 8 10 8 6 6 6 5 3 2 2 2 3 4 4 3 3 2 2 2 2
2 2 1 2 2 3 3 3 3 1 2 3 1 1 1 2 4 6 5 4 5 4 5 4 4 4 5 5 5 5 4 5 4 4 3 4 4 4 3 2 1 1 1
2 1 1 2 2 3 3 3 4 2 2 3 2 2 2 4 7 8 9 9 8 5 3 3 3 4 4 4 4 5 4 4 4 4 4 4 4 4 4 3 1 1 1
3 2 1 2 3 3 3 3 1 2 3 2 2 3 3 6 7 8 8 8 8 5 4 3 3 4 4 4 4 4 4 4 4 4 4 5 5 4 3 3 2 1 1
3 2 2 2 3 3 3 3 2 2 1 3 4 5 6 7 7 7 7 6 5 5 3 3 3 4 3 4 4 4 4 5 5 5 5 5 5 4 3 3 2 2 2
3 2 2 2 3 3 3 3 2 2 1 1 2 4 5 5 6 7 5 3 2 3 3 3 3 3 3 4 4 4 4 4 5 5 5 6 5 4 4 3 3 3 2
2 4 4 3 3 3 3 3 3 2 1 1 0 1 3 3 3 4 3 2 2 2 3 3 3 4 4 4 4 4 5 5 6 5 5 6 5 4 4 4 3 2 2
2 2 4 4 3 3 3 3 3 3 2 2 1 1 0 1 1 1 2 2 2 2 3 3 3 4 4 4 4 5 5 5 5 5 5 6 6 5 5 4 3 3 3
2 2 2 3 3 3 3 3 3 3 3 2 1 1 1 1 1 1 1 2 2 2 2 2 3 3 3 3 4 4 5 5 6 6 6 6 6 5 5 4 3 3 3
3 3 3 3 3 4 3 2 3 2 2 2 1 1 1 1 1 1 1 2 2 2 3 3 3 3 3 3 3 3 4 5 5 6 6 6 5 5 4 4 4 3 3
3 4 4 4 3 3 3 3 2 2 3 2 1 1 1 1 1 1 1 2 2 3 3 3 3 4 5 4 4 4 4 5 6 5 6 5 5 4 4 3 3 4 3
2 3 4 4 4 4 4 3 3 3 2 2 2 1 1 1 1 1 1 2 3 3 4 3 3 4 6 7 7 6 9 10 8 6 4 3 4 4 4 4 3 3 4
3 4 4 4 4 4 4 4 3 3 2 2 1 1 2 2 1 1 1 2 3 3 3 3 4 5 6 6 8 9 10 10 10 9 5 3 4 4 4 3 5 4 4
Wind_Direction
67 71 75 74 74 76 77 76 76 74 71 71 69 67 63 58 55 57 57 53 57 51 46 50 44 36 34 27 29 35 36 49 77 339 332 335 356 340 321 297 276 270 278
71 73 74 74 75 75 75 73 73 74 70 69 66 64 60 54 49 50 51 46 48 46 41 42 36 40 34 27 31 34 31 40 72 9 324 329 325 314 307 301 298 295 287
76 77 76 74 75 75 74 73 73 73 70 67 65 62 58 51 46 42 45 41 38 37 34 34 24 38 32 24 30 24 13 20 38 29 319 313 306 313 324 312 313 310 307
80 80 79 76 77 77 76 73 71 72 71 65 63 62 59 52 45 38 38 37 27 20 18 22 27 50 49 26 24 11 8 12 11 8 331 318 310 310 339 327 325 318 308
87 85 82 81 80 79 75 71 69 69 70 68 67 60 53 50 38 36 29 30 23 11 3 2 5 37 41 15 2 340 353 351 350 347 327 326 315 324 318 302 305 308 304
93 90 88 86 84 80 78 75 71 68 66 69 69 65 52 43 32 33 32 25 14 8 356 352 0 32 22 13 358 348 336 301 289 284 286 289 283 276 273 281 299 336 314
98 98 97 95 90 86 90 85 80 79 79 79 79 73 54 27 28 25 26 31 14 0 351 350 2 28 27 6 352 353 344 329 292 225 244 261 260 255 259 283 274 256 255
104 101 100 98 94 90 87 85 85 96 105 113 116 100 63 26 27 26 25 30 23 13 10 20 31 352 358 358 345 340 327 318 305 268 239 253 255 253 232 231 245 271 274
111 110 108 105 101 96 90 79 74 100 114 169 160 136 87 15 20 27 31 21 17 5 2 10 19 346 328 348 349 334 324 314 312 316 295 279 274 270 249 217 253 267 302
121 119 115 112 112 112 108 75 9 106 124 126 114 129 123 26 10 21 27 24 10 352 343 340 330 317 314 321 310 307 308 303 319 326 325 324 315 305 277 205 207 209 249
131 122 117 115 124 117 69 37 47 64 72 74 80 66 64 34 14 16 18 21 348 333 327 320 312 318 317 312 296 252 259 277 298 304 309 315 321 320 305 260 209 195 205
122 123 123 116 100 88 66 48 51 64 71 63 64 49 23 16 22 13 14 14 7 325 308 305 306 317 321 322 313 287 290 296 297 313 322 322 322 316 308 302 272 226 215
120 123 120 93 60 74 78 71 60 61 72 63 69 66 23 3 359 5 2 357 357 341 305 309 318 331 342 344 345 346 344 340 334 331 323 305 289 288 300 319 341 350 332
132 148 143 108 85 75 75 84 84 74 75 70 71 67 14 344 340 341 337 335 341 342 334 329 338 353 6 357 353 357 352 335 320 306 302 298 305 323 331 338 350 360 10
136 145 140 126 119 100 80 73 96 96 143 132 129 133 79 333 306 314 319 321 322 317 327 343 359 357 2 360 353 348 345 351 349 335 330 330 331 337 330 331 356 22 25
150 170 179 157 137 128 116 72 48 90 88 105 150 178 252 267 300 320 330 333 333 335 10 6 352 353 354 352 348 343 344 345 340 340 344 343 338 336 332 335 358 14 326
172 184 178 156 153 153 147 142 120 348 338 319 299 298 293 303 319 331 344 356 13 34 36 4 354 350 347 347 350 349 344 338 341 352 352 347 343 342 341 338 343 345 318
167 174 157 157 160 162 165 168 163 158 322 318 312 307 313 323 336 350 8 25 22 19 15 360 353 352 356 359 0 358 352 353 356 355 353 350 349 345 343 337 332 317 298
156 158 140 141 146 145 148 152 155 160 181 281 327 332 334 349 7 18 36 51 29 3 360 3 6 7 8 8 7 5 2 356 350 348 349 346 345 346 342 333 326 330 339
167 171 152 139 136 133 134 137 143 149 152 154 309 312 342 23 23 10 19 28 30 11 7 14 13 17 15 13 9 5 359 354 351 349 342 340 340 341 337 332 332 333 324
164 159 144 134 143 147 146 150 154 154 158 173 220 250 167 73 35 17 12 11 15 14 17 26 26 20 16 15 10 4 359 345 340 338 337 335 335 335 331 328 329 337 339
156 152 149 151 151 151 156 156 151 154 163 175 226 290 35 69 49 32 16 1 4 18 38 58 48 30 20 16 8 359 348 339 337 337 334 330 329 331 334 338 340 345 353
155 155 158 159 154 147 138 135 142 151 155 158 158 152 104 79 66 48 6 357 18 36 45 56 53 30 16 11 7 357 335 319 310 308 312 317 322 326 331 339 345 350 355
150 157 158 158 150 144 143 142 144 146 142 138 140 146 140 117 97 35 2 10 51 63 64 56 48 34 24 9 350 338 320 306 297 286 284 291 308 322 335 351 354 357 360
153 155 156 157 155 152 146 142 138 136 138 147 154 149 119 110 99 34 19 48 80 88 82 61 36 23 13 5 356 342 331 328 322 310 290 293 323 338 347 358 0 1 11
158 159 155 151 151 153 151 151 157 157 158 158 147 136 130 127 119 70 42 67 93 98 89 57 41 30 12 359 351 345 340 338 338 338 333 341 0 357 354 358 8 13 14